• In United Kingdom
  • List of Countries
  • For 7 days
  • Water Temperature
  • Satellite Maps
  • Weather Map
  • Weather Widgets
  • user-avatar
    Login

    Hourly Weather Canillo

    Today, 25 February, Sunday

    Time Temperature Precipitation Wind Pressure Humidity
    00:00 -8°C° 0 mm 2 mps 610 mmHg 78%
    01:00 -8°C° 0 mm 2 mps 610 mmHg 76%
    02:00 -8°C° 0 mm 2 mps 610 mmHg 74%
    03:00 -7°C° 0 mm 1 mps 610 mmHg 72%
    04:00 -7°C° 0 mm 2 mps 610 mmHg 71%
    05:00 -7°C° 0 mm 2 mps 610 mmHg 71%
    06:00 -7°C° 0 mm 2 mps 610 mmHg 70%
    07:00 -3°C° 0 mm 1 mps 611 mmHg 67%
    08:00 -1°C° 0 mm 1 mps 612 mmHg 63%
    09:00 +1°C° 0 mm 1 mps 612 mmHg 59%
    10:00 +2°C° 0 mm 1 mps 613 mmHg 58%
    11:00 +2°C° 0 mm 2 mps 613 mmHg 57%
    12:00 +4°C° 0 mm 2 mps 614 mmHg 55%
    13:00 +3°C° 0 mm 2 mps 613 mmHg 57%
    14:00 +3°C° 0 mm 2 mps 613 mmHg 59%
    15:00 +3°C° 0 mm 2 mps 613 mmHg 60%
    16:00 +1°C° 0 mm 2 mps 612 mmHg 68%
    17:00 -2°C° 0 mm 2 mps 611 mmHg 76%
    18:00 -4°C° 0 mm 2 mps 610 mmHg 84%
    19:00 -5°C° 0 mm 2 mps 610 mmHg 85%
    20:00 -5°C° 0 mm 2 mps 610 mmHg 85%
    21:00 -6°C° 0 mm 2 mps 611 mmHg 86%
    22:00 -6°C° 0 mm 2 mps 611 mmHg 84%
    23:00 -6°C° 0 mm 2 mps 611 mmHg 81%

    Tomorrow, 26 February, Monday

    Time Temperature Precipitation Wind Pressure Humidity
    00:00 -7°C° 0 mm 2 mps 611 mmHg 78%
    01:00 -7°C° 0 mm 2 mps 610 mmHg 77%
    02:00 -7°C° 0 mm 2 mps 610 mmHg 76%
    03:00 -7°C° 0 mm 2 mps 610 mmHg 75%
    04:00 -8°C° 0 mm 2 mps 610 mmHg 75%
    05:00 -8°C° 0 mm 2 mps 609 mmHg 74%
    06:00 -8°C° 0 mm 2 mps 609 mmHg 74%
    07:00 -7°C° 0 mm 2 mps 610 mmHg 69%
    08:00 -5°C° 0 mm 2 mps 611 mmHg 65%
    09:00 -2°C° 0 mm 1 mps 611 mmHg 60%
    10:00 -3°C° 0 mm 2 mps 611 mmHg 58%
    11:00 -2°C° 0 mm 2 mps 612 mmHg 56%
    12:00 -1°C° 0 mm 2 mps 612 mmHg 53%
    13:00 -1°C° 0 mm 2 mps 611 mmHg 56%
    14:00 -2°C° 0 mm 2 mps 611 mmHg 58%
    15:00 -2°C° 0 mm 2 mps 610 mmHg 61%
    16:00 -4°C° 0.1 mm 2 mps 609 mmHg 67%
    17:00 -5°C° 0.1 mm 2 mps 609 mmHg 74%
    18:00 -7°C° 0.1 mm 2 mps 608 mmHg 80%
    19:00 -8°C° 0.2 mm 2 mps 608 mmHg 80%
    20:00 -8°C° 0.2 mm 2 mps 608 mmHg 80%
    21:00 -9°C° 0.2 mm 2 mps 608 mmHg 80%
    22:00 -9°C° 0.3 mm 2 mps 608 mmHg 80%
    23:00 -10°C° 0.3 mm 2 mps 608 mmHg 80%

    Day after tomorrow, 27 February, Tuesday

    Time Temperature Precipitation Wind Pressure Humidity
    00:00 -10°C° 0.3 mm 2 mps 608 mmHg 80%
    01:00 -10°C° 0.3 mm 2 mps 608 mmHg 79%
    02:00 -12°C° 0.3 mm 2 mps 607 mmHg 78%
    03:00 -12°C° 0.3 mm 2 mps 607 mmHg 78%
    04:00 -12°C° 0.1 mm 2 mps 607 mmHg 76%
    05:00 -13°C° 0.1 mm 2 mps 607 mmHg 74%
    06:00 -13°C° 0.1 mm 2 mps 607 mmHg 72%
    07:00 -12°C° 0 mm 2 mps 607 mmHg 65%
    08:00 -12°C° 0 mm 2 mps 608 mmHg 57%
    09:00 -10°C° 0 mm 2 mps 609 mmHg 50%
    10:00 -8°C° 0 mm 2 mps 609 mmHg 46%
    11:00 -7°C° 0 mm 2 mps 609 mmHg 43%
    12:00 -6°C° 0 mm 2 mps 610 mmHg 40%
    13:00 -6°C° 0 mm 2 mps 610 mmHg 42%
    14:00 -6°C° 0 mm 2 mps 609 mmHg 44%
    15:00 -6°C° 0 mm 2 mps 609 mmHg 46%
    16:00 -6°C° 0.1 mm 1 mps 609 mmHg 53%
    17:00 -7°C° 0.1 mm 1 mps 608 mmHg 60%
    18:00 -9°C° 0.1 mm 1 mps 608 mmHg 67%
    19:00 -9°C° 0.1 mm 1 mps 608 mmHg 68%
    20:00 -9°C° 0.1 mm 1 mps 608 mmHg 70%
    21:00 -10°C° 0.1 mm 1 mps 608 mmHg 72%
    22:00 -10°C° 0 mm 1 mps 608 mmHg 72%
    23:00 -10°C° 0 mm 1 mps 608 mmHg 73%

    28 February, Wednesday

    Time Temperature Precipitation Wind Pressure Humidity
    00:00 -12°C° 0 mm 2 mps 608 mmHg 74%
    01:00 -10°C° 0 mm 1 mps 608 mmHg 74%
    02:00 -10°C° 0 mm 1 mps 608 mmHg 74%
    03:00 -10°C° 0 mm 1 mps 607 mmHg 74%
    04:00 -12°C° 0.1 mm 2 mps 607 mmHg 74%
    05:00 -10°C° 0.1 mm 2 mps 607 mmHg 74%
    06:00 -10°C° 0.1 mm 2 mps 607 mmHg 75%
    07:00 -9°C° 0.3 mm 2 mps 607 mmHg 76%
    08:00 -9°C° 0.3 mm 3 mps 607 mmHg 76%
    09:00 -9°C° 0.3 mm 4 mps 608 mmHg 77%
    10:00 -8°C° 0.6 mm 4 mps 607 mmHg 77%
    11:00 -7°C° 0.6 mm 4 mps 607 mmHg 77%
    12:00 -6°C° 0.6 mm 5 mps 607 mmHg 77%
    13:00 -6°C° 0.6 mm 5 mps 606 mmHg 78%
    14:00 -5°C° 0.6 mm 5 mps 606 mmHg 80%
    15:00 -4°C° 0.6 mm 4 mps 605 mmHg 81%
    16:00 -3°C° 0.7 mm 4 mps 605 mmHg 83%
    17:00 -3°C° 0.7 mm 4 mps 604 mmHg 86%
    18:00 -3°C° 0.7 mm 4 mps 604 mmHg 89%
    19:00 -3°C° 0.7 mm 4 mps 604 mmHg 90%
    20:00 -2°C° 0.7 mm 3 mps 604 mmHg 91%
    21:00 -2°C° 0.7 mm 3 mps 604 mmHg 93%
    22:00 -2°C° 0.9 mm 3 mps 604 mmHg 93%
    23:00 -2°C° 0.9 mm 3 mps 604 mmHg 93%

    1 March, Thursday

    Time Temperature Precipitation Wind Pressure Humidity
    00:00 -2°C° 0.9 mm 3 mps 604 mmHg 93%
    01:00 -2°C° 0.3 mm 3 mps 603 mmHg 93%
    02:00 -2°C° 0.3 mm 3 mps 603 mmHg 93%
    03:00 -2°C° 0.3 mm 2 mps 603 mmHg 94%
    04:00 -2°C° 0 mm 2 mps 603 mmHg 93%
    05:00 -2°C° 0 mm 2 mps 602 mmHg 93%
    06:00 -2°C° 0 mm 2 mps 602 mmHg 92%
    07:00 -1°C° 0.1 mm 2 mps 603 mmHg 91%
    08:00 0°C° 0.1 mm 3 mps 603 mmHg 89%
    09:00 +1°C° 0.1 mm 3 mps 603 mmHg 87%
    10:00 +1°C° 0.1 mm 3 mps 603 mmHg 87%
    11:00 +2°C° 0.1 mm 3 mps 603 mmHg 86%
    12:00 +1°C° 0.1 mm 4 mps 603 mmHg 86%
    13:00 +2°C° 0.4 mm 3 mps 603 mmHg 87%
    14:00 +2°C° 0.4 mm 3 mps 602 mmHg 89%
    15:00 +1°C° 0.4 mm 3 mps 602 mmHg 91%
    16:00 +1°C° 1.1 mm 3 mps 602 mmHg 92%
    17:00 0°C° 1.1 mm 3 mps 601 mmHg 93%
    18:00 -1°C° 1.1 mm 3 mps 601 mmHg 93%
    19:00 -1°C° 0.2 mm 2 mps 601 mmHg 93%
    20:00 -1°C° 0.2 mm 2 mps 601 mmHg 93%
    21:00 -1°C° 0.2 mm 2 mps 601 mmHg 93%
    22:00 -1°C° 0.1 mm 2 mps 602 mmHg 93%
    23:00 -2°C° 0.1 mm 2 mps 602 mmHg 93%

    2 March, Friday

    Time Temperature Precipitation Wind Pressure Humidity
    00:00 -2°C° 0.1 mm 2 mps 602 mmHg 93%
    01:00 -2°C° 0.3 mm 2 mps 602 mmHg 93%
    02:00 -2°C° 0.3 mm 2 mps 603 mmHg 93%
    03:00 -2°C° 0.3 mm 2 mps 603 mmHg 93%
    04:00 0°C° 0 mm 1 mps 604 mmHg 92%
    05:00 -1°C° 0 mm 1 mps 604 mmHg 92%
    06:00 -1°C° 0 mm 1 mps 605 mmHg 91%
    07:00 0°C° 0 mm 1 mps 606 mmHg 89%
    08:00 +2°C° 0 mm 1 mps 607 mmHg 86%
    09:00 +4°C° 0 mm 1 mps 608 mmHg 83%
    10:00 +4°C° 0 mm 1 mps 608 mmHg 81%
    11:00 +4°C° 0 mm 2 mps 609 mmHg 78%
    12:00 +4°C° 0 mm 3 mps 609 mmHg 75%
    13:00 +4°C° 0.2 mm 3 mps 609 mmHg 76%
    14:00 +3°C° 0.2 mm 3 mps 608 mmHg 77%
    15:00 +3°C° 0.2 mm 3 mps 608 mmHg 77%
    16:00 +2°C° 0.3 mm 3 mps 607 mmHg 81%
    17:00 +1°C° 0.3 mm 3 mps 607 mmHg 85%
    18:00 0°C° 0.3 mm 3 mps 607 mmHg 88%
    19:00 +1°C° 0.2 mm 2 mps 607 mmHg 89%
    20:00 +1°C° 0.2 mm 2 mps 607 mmHg 91%
    21:00 +1°C° 0.2 mm 2 mps 608 mmHg 92%
    22:00 -1°C° 0 mm 2 mps 607 mmHg 92%
    23:00 +1°C° 0 mm 1 mps 607 mmHg 92%
    Show more